Precipitable_Water
0.38 0.35 0.33 0.32 0.32 0.30 0.28 0.25 0.24 0.24 0.24 0.23 0.23 0.22 0.21 0.20 0.15 0.13 0.10 0.16 0.21 0.22 0.22 0.19 0.18 0.16 0.18 0.16 0.18 0.18 0.12 0.12 0.15 0.17 0.19 0.25 0.24 0.28 0.30 0.30 0.33 0.35 0.36 0.41 0.45
0.39 0.36 0.33 0.32 0.30 0.26 0.25 0.22 0.21 0.21 0.21 0.21 0.21 0.24 0.24 0.24 0.12 0.08 0.12 0.16 0.14 0.14 0.15 0.14 0.12 0.12 0.10 0.12 0.14 0.12 0.11 0.14 0.20 0.21 0.19 0.21 0.22 0.23 0.22 0.23 0.24 0.27 0.32 0.35 0.38
0.36 0.33 0.31 0.30 0.26 0.24 0.23 0.22 0.22 0.23 0.23 0.22 0.22 0.22 0.21 0.21 0.08 0.08 0.13 0.14 0.11 0.10 0.11 0.14 0.12 0.11 0.10 0.14 0.14 0.16 0.12 0.19 0.20 0.21 0.21 0.19 0.20 0.22 0.20 0.19 0.23 0.24 0.27 0.31 0.32
0.28 0.26 0.25 0.24 0.24 0.25 0.25 0.25 0.25 0.24 0.23 0.20 0.17 0.14 0.13 0.12 0.05 0.10 0.14 0.12 0.09 0.10 0.10 0.11 0.11 0.09 0.11 0.12 0.17 0.14 0.19 0.19 0.20 0.21 0.19 0.17 0.19 0.18 0.19 0.19 0.24 0.25 0.27 0.28 0.29
0.27 0.26 0.26 0.27 0.27 0.26 0.27 0.28 0.25 0.23 0.20 0.17 0.14 0.12 0.10 0.07 0.08 0.12 0.13 0.10 0.08 0.08 0.09 0.09 0.09 0.11 0.11 0.15 0.16 0.14 0.17 0.18 0.18 0.17 0.16 0.17 0.15 0.15 0.17 0.21 0.23 0.24 0.24 0.25 0.25
0.30 0.29 0.29 0.30 0.29 0.28 0.28 0.26 0.21 0.19 0.16 0.14 0.13 0.13 0.09 0.06 0.12 0.12 0.12 0.09 0.08 0.07 0.09 0.09 0.10 0.12 0.10 0.12 0.13 0.17 0.14 0.13 0.14 0.13 0.15 0.13 0.14 0.15 0.16 0.19 0.19 0.20 0.20 0.21 0.20
0.34 0.32 0.32 0.30 0.30 0.29 0.26 0.22 0.22 0.18 0.17 0.16 0.14 0.13 0.10 0.09 0.12 0.14 0.12 0.10 0.09 0.09 0.08 0.10 0.10 0.10 0.12 0.10 0.12 0.10 0.08 0.08 0.09 0.11 0.11 0.12 0.10 0.11 0.15 0.17 0.16 0.18 0.18 0.19 0.19
0.36 0.34 0.32 0.30 0.29 0.26 0.21 0.21 0.21 0.19 0.18 0.17 0.15 0.13 0.10 0.14 0.15 0.14 0.13 0.10 0.09 0.10 0.09 0.10 0.11 0.08 0.09 0.10 0.09 0.07 0.07 0.05 0.07 0.08 0.10 0.10 0.06 0.11 0.15 0.15 0.15 0.17 0.18 0.19 0.20
0.36 0.34 0.32 0.30 0.27 0.24 0.21 0.20 0.21 0.20 0.16 0.15 0.13 0.12 0.10 0.15 0.12 0.14 0.13 0.11 0.10 0.09 0.10 0.10 0.09 0.09 0.09 0.07 0.05 0.06 0.05 0.05 0.06 0.10 0.10 0.09 0.08 0.12 0.14 0.14 0.14 0.15 0.17 0.17 0.18
0.36 0.33 0.32 0.31 0.26 0.23 0.23 0.22 0.18 0.17 0.17 0.16 0.15 0.12 0.12 0.11 0.13 0.14 0.15 0.13 0.11 0.10 0.08 0.08 0.09 0.07 0.06 0.05 0.05 0.05 0.06 0.07 0.07 0.09 0.10 0.09 0.09 0.11 0.13 0.13 0.12 0.13 0.14 0.15 0.16
0.37 0.35 0.34 0.28 0.27 0.28 0.25 0.21 0.13 0.14 0.16 0.14 0.14 0.12 0.12 0.14 0.15 0.14 0.15 0.13 0.13 0.12 0.10 0.11 0.10 0.07 0.08 0.09 0.09 0.08 0.08 0.07 0.09 0.11 0.09 0.09 0.09 0.11 0.12 0.12 0.11 0.12 0.13 0.14 0.15
0.38 0.40 0.35 0.29 0.27 0.27 0.26 0.19 0.22 0.18 0.13 0.17 0.17 0.16 0.16 0.15 0.12 0.14 0.15 0.13 0.12 0.10 0.12 0.11 0.09 0.11 0.10 0.10 0.09 0.08 0.08 0.07 0.10 0.12 0.11 0.10 0.09 0.11 0.11 0.11 0.12 0.12 0.13 0.13 0.14
0.37 0.38 0.36 0.30 0.27 0.26 0.28 0.29 0.39 0.24 0.14 0.15 0.18 0.17 0.18 0.17 0.13 0.13 0.14 0.13 0.12 0.11 0.12 0.11 0.12 0.14 0.13 0.11 0.10 0.10 0.09 0.09 0.08 0.12 0.13 0.11 0.08 0.09 0.11 0.11 0.12 0.13 0.14 0.13 0.14
0.39 0.34 0.32 0.30 0.23 0.28 0.25 0.44 0.49 0.35 0.10 0.12 0.15 0.17 0.19 0.18 0.15 0.15 0.16 0.14 0.13 0.12 0.12 0.12 0.14 0.14 0.14 0.14 0.13 0.11 0.12 0.11 0.11 0.09 0.07 0.13 0.05 0.07 0.09 0.09 0.11 0.14 0.13 0.14 0.15
0.44 0.37 0.38 0.35 0.25 0.25 0.35 0.52 0.51 0.43 0.06 0.14 0.14 0.22 0.20 0.17 0.17 0.16 0.17 0.14 0.12 0.12 0.13 0.12 0.13 0.13 0.14 0.15 0.16 0.13 0.14 0.12 0.13 0.11 0.10 0.10 0.08 0.07 0.11 0.09 0.11 0.13 0.12 0.14 0.15
0.45 0.44 0.45 0.37 0.33 0.39 0.45 0.41 0.40 0.15 0.06 0.12 0.15 0.15 0.16 0.17 0.17 0.19 0.16 0.17 0.16 0.13 0.14 0.13 0.16 0.15 0.15 0.16 0.17 0.17 0.14 0.13 0.12 0.11 0.08 0.09 0.09 0.06 0.07 0.09 0.10 0.11 0.13 0.13 0.14
0.46 0.50 0.49 0.50 0.30 0.48 0.41 0.28 0.11 0.06 0.15 0.11 0.13 0.15 0.15 0.15 0.16 0.17 0.16 0.15 0.14 0.12 0.12 0.13 0.13 0.15 0.16 0.15 0.17 0.17 0.14 0.09 0.08 0.09 0.08 0.12 0.09 0.07 0.09 0.11 0.12 0.12 0.13 0.13 0.14
0.49 0.47 0.49 0.50 0.51 0.46 0.36 0.18 0.06 0.11 0.12 0.15 0.14 0.15 0.13 0.15 0.16 0.16 0.15 0.14 0.16 0.16 0.13 0.12 0.11 0.14 0.17 0.16 0.15 0.16 0.15 0.12 0.09 0.09 0.10 0.13 0.09 0.08 0.11 0.13 0.14 0.15 0.14 0.15 0.15
0.49 0.43 0.35 0.44 0.44 0.49 0.26 0.09 0.08 0.12 0.13 0.12 0.14 0.13 0.13 0.15 0.15 0.16 0.15 0.14 0.15 0.16 0.14 0.14 0.13 0.16 0.17 0.18 0.18 0.16 0.15 0.17 0.13 0.13 0.11 0.12 0.13 0.12 0.11 0.11 0.13 0.14 0.15 0.15 0.15
0.43 0.30 0.29 0.44 0.46 0.42 0.20 0.10 0.12 0.15 0.14 0.14 0.11 0.13 0.11 0.13 0.13 0.14 0.15 0.16 0.16 0.18 0.19 0.17 0.14 0.18 0.18 0.19 0.20 0.18 0.20 0.15 0.16 0.11 0.10 0.12 0.13 0.11 0.10 0.11 0.13 0.14 0.15 0.16 0.16
0.46 0.22 0.33 0.43 0.44 0.28 0.11 0.11 0.14 0.15 0.15 0.13 0.12 0.12 0.13 0.13 0.14 0.14 0.15 0.17 0.18 0.18 0.20 0.19 0.17 0.17 0.19 0.17 0.17 0.18 0.17 0.19 0.19 0.16 0.12 0.11 0.14 0.17 0.13 0.14 0.14 0.14 0.15 0.15 0.16
0.49 0.18 0.37 0.45 0.19 0.20 0.13 0.15 0.15 0.13 0.16 0.14 0.14 0.14 0.14 0.15 0.14 0.15 0.15 0.18 0.20 0.20 0.18 0.20 0.18 0.15 0.17 0.22 0.22 0.20 0.19 0.20 0.17 0.16 0.17 0.16 0.16 0.20 0.17 0.17 0.17 0.15 0.15 0.16 0.16
0.39 0.28 0.39 0.44 0.14 0.16 0.17 0.15 0.15 0.11 0.11 0.12 0.12 0.15 0.16 0.15 0.13 0.17 0.18 0.22 0.22 0.21 0.20 0.21 0.18 0.15 0.16 0.20 0.22 0.20 0.21 0.21 0.22 0.21 0.17 0.16 0.17 0.22 0.21 0.20 0.17 0.15 0.15 0.16 0.16
0.44 0.27 0.27 0.33 0.31 0.20 0.15 0.14 0.13 0.15 0.13 0.14 0.13 0.15 0.14 0.14 0.18 0.17 0.19 0.22 0.24 0.24 0.25 0.23 0.20 0.19 0.16 0.19 0.21 0.19 0.21 0.22 0.22 0.18 0.18 0.18 0.19 0.22 0.21 0.19 0.15 0.14 0.15 0.15 0.16
0.49 0.36 0.31 0.20 0.22 0.22 0.20 0.16 0.12 0.11 0.14 0.15 0.13 0.13 0.13 0.13 0.17 0.18 0.21 0.22 0.25 0.28 0.25 0.23 0.19 0.22 0.23 0.23 0.24 0.23 0.22 0.23 0.22 0.22 0.19 0.20 0.20 0.23 0.23 0.19 0.15 0.15 0.15 0.15 0.16
0.46 0.39 0.45 0.35 0.31 0.23 0.20 0.16 0.14 0.13 0.12 0.11 0.11 0.13 0.14 0.13 0.16 0.17 0.21 0.22 0.23 0.27 0.23 0.26 0.20 0.23 0.22 0.25 0.25 0.22 0.23 0.24 0.24 0.24 0.23 0.23 0.22 0.26 0.25 0.21 0.17 0.16 0.15 0.15 0.16
0.57 0.60 0.43 0.35 0.34 0.29 0.23 0.19 0.18 0.18 0.17 0.16 0.16 0.14 0.15 0.18 0.22 0.25 0.27 0.28 0.28 0.26 0.25 0.24 0.23 0.22 0.20 0.25 0.24 0.20 0.22 0.23 0.24 0.25 0.24 0.21 0.23 0.26 0.23 0.21 0.18 0.17 0.16 0.16 0.16
Wind_Speed
12 12 11 11 11 10 10 10 9 8 8 7 6 6 8 11 14 15 15 13 12 10 8 9 9 9 9 8 8 6 5 5 4 7 6 8 7 8 9 8 10 13 14 16 17
13 12 12 12 11 11 11 11 10 8 8 7 5 3 4 7 13 18 16 16 13 10 8 10 10 11 10 11 10 7 6 8 7 5 4 8 9 11 13 13 14 15 16 17 18
13 13 13 12 12 11 11 11 11 10 8 9 9 5 4 5 12 14 18 18 15 10 10 9 9 11 12 12 11 10 8 7 9 7 7 9 13 16 16 17 18 18 20 20 20
14 14 13 12 11 10 10 10 10 10 10 10 12 16 13 8 9 13 18 18 16 13 10 10 11 9 10 11 10 12 11 8 7 10 11 14 14 15 15 17 19 19 20 21 22
13 12 11 10 9 9 9 9 11 12 12 12 13 12 13 16 14 13 17 20 16 13 11 9 11 10 10 12 17 14 11 11 10 12 13 15 18 16 17 18 19 21 22 23 23
11 10 9 9 9 9 10 11 13 14 15 17 17 13 11 18 14 16 17 19 19 16 13 12 11 13 11 9 11 9 11 10 12 13 15 16 19 21 19 19 20 21 22 23 24
9 9 9 9 10 11 11 12 13 15 15 14 13 14 19 14 12 14 18 19 18 17 14 12 9 11 13 16 13 12 12 13 14 14 15 17 21 19 19 19 19 19 19 20 22
9 9 10 11 12 12 13 12 14 15 14 13 14 17 15 12 12 15 14 18 20 19 16 14 15 15 11 10 11 11 12 14 16 17 17 17 18 18 19 18 18 19 19 20 21
9 10 10 12 12 12 13 13 13 13 14 12 11 12 12 12 13 16 16 14 16 20 20 17 15 14 12 11 13 15 13 15 15 17 17 19 17 17 18 18 18 18 19 19 20
9 10 11 12 12 12 13 15 15 11 10 11 12 11 12 12 12 12 16 16 15 13 17 17 14 14 15 13 12 14 15 15 15 18 19 18 17 17 18 19 19 19 19 20 20
8 10 10 11 11 11 12 10 10 12 16 15 13 15 12 13 15 14 12 17 16 17 14 18 15 14 15 16 14 14 14 15 17 19 16 19 17 17 18 20 21 21 21 21 20
8 9 10 11 12 13 11 11 11 11 14 14 13 14 14 14 14 17 15 14 17 14 14 15 18 15 14 15 15 16 16 18 16 19 18 19 19 19 19 20 21 22 23 22 21
6 8 9 10 10 11 12 11 10 10 11 11 11 11 9 13 15 14 14 13 15 17 18 16 14 16 15 16 17 17 17 17 15 18 19 20 20 19 21 21 22 23 24 23 22
5 7 9 10 9 8 8 7 6 7 8 7 8 10 10 8 12 14 13 12 13 13 14 16 15 16 18 17 17 18 19 17 16 18 19 21 20 20 21 23 24 25 25 25 24
4 7 9 11 9 8 6 4 4 4 5 3 6 7 9 10 7 13 13 13 13 14 13 13 15 16 19 19 19 17 20 17 16 17 20 20 20 21 24 25 25 26 26 25 25
4 7 9 10 9 8 5 3 3 3 3 3 4 5 6 8 9 9 12 13 11 12 15 13 15 16 16 18 20 21 20 17 18 18 19 18 19 22 22 23 26 28 27 26 26
4 7 8 9 9 8 6 4 2 5 3 2 2 3 5 6 7 9 10 13 12 12 14 13 14 16 17 19 20 24 22 18 18 19 16 18 20 20 23 25 27 29 28 28 28
4 7 8 9 8 8 7 4 3 4 3 2 1 2 4 6 7 8 9 10 13 13 11 13 14 15 16 18 19 22 21 17 16 17 19 18 17 21 23 27 29 29 29 30 29
4 6 8 9 9 9 7 4 6 6 3 3 1 2 4 5 5 7 8 8 11 13 12 13 12 13 15 17 18 19 22 19 18 18 19 18 22 25 25 28 29 29 30 30 31
4 6 7 9 10 9 7 8 6 6 4 4 3 3 4 5 6 7 7 7 9 11 12 11 13 13 14 15 18 18 17 19 21 19 19 20 21 20 26 29 30 30 30 31 32
4 4 7 8 10 9 9 9 8 7 6 5 5 5 5 6 6 7 6 7 8 10 12 12 12 14 14 13 13 17 18 19 17 16 16 19 21 20 24 28 29 30 30 31 32
5 4 7 8 9 10 11 10 9 8 7 7 6 6 6 6 7 7 7 8 8 10 11 12 11 14 13 13 14 15 15 16 17 16 17 17 21 23 25 29 29 29 29 31 31
5 6 7 8 9 11 12 11 10 9 9 8 7 7 7 7 7 7 8 10 9 10 10 11 12 15 13 14 15 14 15 16 16 17 15 16 21 24 27 28 29 27 28 29 30
5 5 7 8 9 10 12 13 12 11 10 9 9 8 8 8 9 8 9 9 10 11 10 12 11 11 11 13 14 14 15 14 13 15 16 16 23 28 28 28 28 27 27 27 28
7 8 8 8 10 11 11 12 12 13 12 11 10 11 10 9 9 10 9 10 11 10 11 11 12 12 15 17 15 15 14 12 12 13 14 20 20 28 29 26 26 25 25 26 27
8 8 8 9 9 9 11 13 14 13 13 13 13 12 11 11 11 11 10 11 11 11 11 12 13 15 15 13 13 15 14 12 13 15 17 21 24 25 25 24 24 24 25 25 25
10 10 9 10 9 9 12 13 14 13 14 13 13 11 12 14 13 13 13 13 12 11 12 11 12 14 13 15 17 13 12 11 12 13 14 16 19 23 23 23 24 23 23 23 24
Wind_Direction
109 111 110 105 100 93 87 84 84 87 83 77 73 72 68 49 41 46 41 17 12 17 40 45 51 33 36 29 25 15 3 351 313 307 281 301 296 309 298 298 296 278 277 276 279
106 108 107 104 98 91 85 80 79 77 75 64 55 67 70 45 46 49 34 24 23 29 44 49 43 39 37 28 21 22 18 2 346 343 356 334 321 301 293 299 291 283 284 282 282
104 105 105 102 97 91 85 80 72 68 70 57 48 72 88 68 57 44 29 25 25 39 59 57 51 46 38 31 15 14 28 38 26 23 4 353 338 300 296 298 289 285 283 283 284
100 103 102 98 95 91 83 75 65 60 67 68 70 73 76 90 79 39 29 30 35 49 60 44 40 35 34 29 22 44 35 26 10 356 349 345 331 334 314 295 289 286 283 282 284
99 99 96 93 94 88 79 75 72 70 75 75 78 83 76 73 67 45 38 35 40 46 46 45 40 39 43 54 53 55 47 36 33 19 4 356 347 338 323 308 298 290 286 284 282
97 95 93 93 92 88 85 85 79 80 81 79 73 81 84 77 62 52 40 36 38 40 42 38 49 61 43 34 31 53 54 35 11 3 351 351 340 336 328 319 310 300 292 287 282
94 92 93 95 92 92 94 87 85 84 85 80 76 76 71 81 65 41 38 40 37 42 51 44 41 34 57 57 65 58 37 20 1 351 346 346 345 341 335 328 321 313 303 296 291
89 93 97 96 100 96 94 94 94 86 86 85 75 72 79 69 54 40 41 45 45 48 53 54 56 56 39 59 29 18 10 1 352 352 348 347 340 341 343 337 333 323 313 304 299
92 101 100 103 101 101 97 98 96 89 80 81 67 76 68 60 55 50 47 48 46 49 50 54 51 44 36 37 23 12 7 1 355 357 348 352 346 345 347 344 339 331 323 314 309
97 106 108 107 104 106 105 100 85 91 84 73 63 72 62 58 55 50 48 47 46 40 40 34 39 41 34 25 18 12 8 360 353 352 355 355 352 350 347 345 342 337 330 321 314
101 110 114 112 106 110 118 102 91 76 73 79 73 80 72 63 57 49 48 43 43 46 45 37 48 39 35 30 28 19 11 3 357 353 356 350 351 347 346 345 342 339 334 327 319
110 119 122 119 110 109 111 104 98 99 81 75 76 75 70 61 56 45 48 49 42 45 39 35 35 30 28 24 21 13 5 -0 356 356 360 354 346 346 345 344 343 341 336 331 326
126 137 137 133 127 116 107 101 94 94 91 76 72 64 63 58 55 40 46 49 46 45 40 40 32 28 24 16 11 9 7 356 353 358 1 358 350 346 345 343 343 341 339 334 328
139 153 159 152 140 139 127 107 96 101 94 56 55 53 50 63 51 40 39 43 39 40 35 35 26 26 22 19 9 6 360 356 360 1 357 1 352 353 350 344 342 339 339 336 331
146 157 161 167 156 152 145 122 112 112 91 64 61 61 50 59 46 29 31 34 38 29 31 26 25 21 21 15 10 2 1 3 5 5 360 358 360 350 356 351 344 342 339 338 336
157 164 170 173 173 168 166 143 125 97 102 91 73 55 48 40 37 25 28 29 28 28 29 28 21 21 17 14 12 5 6 9 8 5 4 1 4 353 356 353 353 349 347 344 341
172 170 174 178 180 185 181 161 116 122 146 122 78 53 43 27 26 23 21 21 22 16 15 14 14 13 13 10 10 11 12 7 6 6 357 0 1 345 350 350 350 349 349 347 345
185 187 183 184 191 189 184 170 124 181 188 171 89 41 19 8 9 10 11 12 14 17 15 12 6 9 7 10 9 12 14 17 359 0 353 359 355 355 354 352 351 351 350 350 349
191 193 197 200 199 196 192 190 203 200 211 196 270 329 339 346 355 1 1 1 3 8 9 5 356 2 2 6 9 6 11 7 7 5 4 359 353 352 358 355 353 352 352 351 352
199 200 206 210 203 202 201 212 211 218 224 234 248 279 303 320 333 344 342 344 352 358 360 356 354 356 357 1 5 4 8 6 7 5 358 356 355 356 356 354 355 354 354 355 356
212 214 218 216 210 214 215 225 230 231 237 246 252 277 298 308 320 325 326 331 337 345 350 352 355 352 355 351 355 1 2 6 6 8 2 358 353 354 353 354 354 354 356 357 357
227 237 227 219 220 226 223 227 233 237 247 258 268 279 281 295 311 318 315 325 332 338 343 343 346 340 341 349 349 353 354 360 5 358 358 360 351 355 352 351 353 353 355 357 359
239 240 235 226 227 235 236 234 237 241 246 256 263 275 287 290 306 309 316 325 328 334 335 337 341 342 348 352 348 344 347 352 359 0 352 2 349 355 352 351 352 353 355 357 359
244 254 251 241 241 231 233 238 239 246 248 254 262 272 283 288 297 297 308 315 318 326 334 336 333 330 329 330 341 335 340 344 352 356 353 343 341 344 350 352 353 355 356 358 360
255 254 248 253 253 241 241 238 239 243 250 252 266 264 271 280 289 291 303 309 314 315 325 329 324 327 321 316 325 323 326 335 334 339 345 347 346 341 348 354 355 357 359 0 1
253 253 261 256 257 246 246 245 240 246 244 255 257 264 266 272 275 282 293 298 300 310 313 320 320 329 327 337 339 327 322 324 320 338 329 328 333 344 353 359 356 356 358 359 2
257 260 259 261 256 252 254 248 246 241 251 253 256 263 268 272 278 287 289 298 295 298 299 308 317 329 323 332 330 334 334 344 343 343 347 346 340 354 355 353 355 356 359 360 1